This is the latest recevied weather packets stored in our database for station/object GCEMA. If no packets are shown the sender has not sent any weather packets the latest 1 day(s).
| Time | Temp. | Humidity | Pressure | Rain* | Wind** | Luminosity | Snow |
|---|---|---|---|---|---|---|---|
| 1778107637 | 15° C | - | 1011.8 hPa | 0 mm | 0 m/s | - | - |
| 1778107278 | 16.11° C | - | 1011.7 hPa | 0 mm | 0 m/s | - | - |
| 1778106557 | 15.56° C | - | 1011.8 hPa | 0 mm | 0 m/s | - | - |
| 1778105656 | 16.11° C | - | 1011.9 hPa | 0 mm | 0 m/s | - | - |
| 1778104396 | 16.11° C | - | 1011.7 hPa | 0 mm | 0 m/s | - | - |
| 1778104034 | 16.11° C | - | 1011.7 hPa | 0 mm | 0 m/s | - | - |
| 1778102774 | 16.67° C | - | 1011.7 hPa | 0 mm | 0 m/s | - | - |
| 1778101514 | 16.11° C | - | 1011.8 hPa | 0 mm | 0 m/s | - | - |
| 1778101152 | 16.11° C | - | 1011.7 hPa | 0 mm | 0 m/s | - | - |
| 1778100793 | 15.56° C | - | 1011.8 hPa | 0 mm | 0 m/s | - | - |
| 1778099171 | 15.56° C | - | 1011.8 hPa | 0 mm | 0 m/s | - | - |
| 1778098812 | 16.11° C | - | 1011.7 hPa | 0 mm | 0 m/s | - | - |
| 1778098450 | 15.56° C | - | 1011.7 hPa | 0 mm | 0 m/s | - | - |
| 1778097911 | 17.78° C | - | 1011.5 hPa | 0 mm | 0 m/s | - | - |
| 1778097549 | 16.67° C | - | 1011.6 hPa | 0 mm | 0 m/s | - | - |
| 1778097190 | 16.11° C | - | 1011.7 hPa | 0 mm | 0 m/s | - | - |
| 1778096828 | 16.67° C | - | 1011.8 hPa | 0 mm | 0 m/s | - | - |
| 1778096289 | 15.56° C | - | 1011.8 hPa | 0 mm | 0 m/s | - | - |
| 1778095748 | 16.11° C | - | 1011.7 hPa | 0 mm | 0 m/s | - | - |
| 1778095388 | 17.22° C | - | 1011.8 hPa | 0 mm | 0 m/s | - | - |
| 1778095026 | 16.11° C | - | 1011.8 hPa | 0 mm | 0 m/s | - | - |
| 1778094668 | 15° C | - | 1011.7 hPa | 0 mm | 0 m/s | - | - |
| 1778094310 | 18.33° C | - | 1011.8 hPa | 0 mm | 0 m/s | - | - |
| 1778093046 | 17.22° C | - | 1011.8 hPa | 0 mm | 0 m/s | - | - |
| 1778092325 | 15.56° C | - | 1011.9 hPa | 0 mm | 0 m/s | - | - |
* Rain latest hour (hover to see other rain measurements)
** Current wind speed in m/s (hover to see current wind gust speed)